DW4395 Weather Reports


Display with metric or nautical units.
time (UTC)temp
F
wind
direction
speed
MPH
gust
MPH
rain 1hr
in
rain 24hr
in
rain mn
in
humidity
%
barometer
mb
20260509052520 72 0.0 0.0 0.00 0.00 0.00 47 1023.9
20260509051521 73 0.0 2.0 0.00 0.00 0.00 46 1023.8
20260509050520 73 0.0 1.0 0.00 0.00 0.00 46 1023.9
20260509045521 74 0.0 1.0 0.00 0.00 0.00 45 1023.9
20260509044521 74 0.0 0.0 0.00 0.00 0.00 45 1023.9
20260509043520 74 0.0 0.0 0.00 0.00 0.00 45 1023.9
20260509042520 75 0.0 1.0 0.00 0.00 0.00 44 1024.0
20260509041521 75 0.0 1.0 0.00 0.00 0.00 46 1023.9
20260509040521 74 0.0 2.0 0.00 0.00 0.00 47 1023.8
20260509035521 77 0.0 0.0 0.00 0.00 0.00 43 1023.9
20260509034521 76 0.0 1.0 0.00 0.00 0.00 47 1023.9
20260509033701 74 0.0 1.0 0.00 0.00 0.00 47 1024.0
20260509032520 74 0.0 1.0 0.00 0.00 0.00 49 1024.0
20260509031521 73 0.0 1.0 0.00 0.00 0.00 49 1024.1
20260509030522 71 0.0 1.0 0.00 0.00 0.00 52 1024.0
20260509025523 71 0.0 1.0 0.00 0.00 0.00 52 1024.4
20260509024703 71 0.0 0.0 0.00 0.00 0.00 54 1024.7
20260509023702 72 0.0 2.0 0.00 0.00 0.00 51 1024.8
20260509022522 71 0.0 1.0 0.00 0.00 0.00 54 1025.1
20260509021523 70 0.0 1.0 0.00 0.00 0.00 54 1025.2
20260509020523 69 0.0 1.0 0.00 0.00 0.00 56 1025.4
20260509015519 69 0.0 1.0 0.00 0.00 0.00 55 1025.5
20260509014523 70 0.0 2.0 0.00 0.00 0.00 53 1025.9
20260509013522 72 0.0 1.0 0.00 0.00 0.00 53 1025.8
20260509012523 71 0.0 1.0 0.00 0.00 0.00 54 1025.8
20260509011521 70 0.0 1.0 0.00 0.00 0.00 56 1025.9
20260509010520 69 0.0 1.0 0.00 0.00 0.00 56 1026.0
20260509005707 69 0.0 1.0 0.00 0.00 0.00 58 1026.3
20260509003522 68 0.0 1.0 0.00 0.00 0.00 59 1026.4
20260509002522 66 0.0 1.0 0.00 0.00 0.00 62 1026.7
20260509001522 65 0.0 1.0 0.00 0.00 0.00 62 1026.7
20260509000521 64 0.0 1.0 0.00 0.00 0.00 65 1026.6
20260508235843 63 0.0 1.0 0.00 0.00 0.00 67 1026.7
20260508234521 62 0.0 2.0 0.00 0.00 0.00 68 1026.7
20260508233520 62 0.0 1.0 0.00 0.00 0.00 70 1027.0
20260508232522 60 0.0 1.0 0.00 0.00 0.00 74 1026.9
20260508231522 58 0.0 1.0 0.00 0.00 0.00 77 1026.8
20260508230522 56 0.0 1.0 0.00 0.00 0.00 79 1026.7
20260508225520 54 0.0 0.0 0.00 0.00 0.00 84 1026.9
20260508224522 52 0.0 0.0 0.00 0.00 0.00 93 1026.8
20260508223701 50 0.0 0.0 0.00 0.00 0.00 97 1026.7
20260508222521 48 0.0 0.0 0.00 0.00 0.00 98 1026.6
20260508221521 47 0.0 0.0 0.00 0.00 0.00 98 1026.5
20260508220703 45 0.0 0.0 0.00 0.00 0.00 97 1026.4
20260508215521 43 0.0 0.0 0.00 0.00 0.00 97 1026.2
20260508214520 41 0.0 0.0 0.00 0.00 0.00 97 1026.2
20260508213521 40 0.0 0.0 0.00 0.00 0.00 96 1026.1
20260508212522 39 0.0 0.0 0.00 0.00 0.00 96 1026.0
20260508211521 38 0.0 0.0 0.00 0.00 0.00 96 1025.9
20260508210522 37 0.0 0.0 0.00 0.00 0.00 96 1025.7
20260508205703 36 0.0 0.0 0.00 0.00 0.00 95 1025.7
20260508204521 36 0.0 0.0 0.00 0.00 0.00 94 1025.6
20260508203522 35 0.0 0.0 0.00 0.00 0.00 94 1025.4
20260508202521 36 0.0 0.0 0.00 0.00 0.00 94 1025.3
20260508201703 36 0.0 0.0 0.00 0.00 0.00 94 1025.0
20260508200522 36 0.0 0.0 0.00 0.00 0.00 94 1024.9
20260508195521 36 0.0 0.0 0.00 0.00 0.00 94 1024.9
20260508194521 37 0.0 0.0 0.00 0.00 0.00 94 1024.7
20260508193521 37 0.0 0.0 0.00 0.00 0.00 94 1024.7
20260508192521 36 0.0 0.0 0.00 0.00 0.00 94 1024.6
20260508191522 37 0.0 0.0 0.00 0.00 0.00 93 1024.4
20260508190521 37 0.0 0.0 0.00 0.00 0.00 93 1024.4
20260508185521 38 0.0 0.0 0.00 0.00 0.00 94 1024.3
20260508184521 37 0.0 0.0 0.00 0.00 0.00 94 1024.3
20260508183521 37 0.0 0.0 0.00 0.00 0.00 93 1024.1
20260508182521 37 0.0 0.0 0.00 0.00 0.00 93 1024.1
20260508181521 38 0.0 0.0 0.00 0.00 0.00 93 1024.1
20260508180702 38 0.0 0.0 0.00 0.00 0.00 94 1024.1
20260508175520 38 0.0 0.0 0.00 0.00 0.00 93 1024.0
20260508174701 38 0.0 0.0 0.00 0.00 0.00 93 1024.0
20260508173520 38 0.0 0.0 0.00 0.00 0.00 92 1024.1
20260508172704 39 0.0 0.0 0.00 0.00 0.00 92 1024.2
20260508171521 39 0.0 0.0 0.00 0.00 0.00 93 1024.0
20260508170521 39 0.0 0.0 0.00 0.00 0.00 92 1023.9
20260508165521 40 0.0 0.0 0.00 0.00 0.00 92 1023.9
20260508164521 40 0.0 0.0 0.00 0.00 0.00 93 1024.0
20260508162520 40 0.0 0.0 0.00 0.00 0.00 92 1024.0
20260508161521 40 0.0 0.0 0.00 0.00 0.00 92 1024.0
20260508160520 41 0.0 0.0 0.00 0.00 0.00 92 1024.0
20260508155520 41 0.0 0.0 0.00 0.00 0.00 92 1024.1
20260508154520 40 0.0 0.0 0.00 0.00 0.00 92 1024.1
20260508153522 40 0.0 0.0 0.00 0.00 0.00 91 1024.1
20260508152520 41 0.0 0.0 0.00 0.00 0.00 91 1024.0
20260508151522 41 0.0 0.0 0.00 0.00 0.00 91 1023.9
20260508150521 42 0.0 0.0 0.00 0.00 0.00 91 1023.9
20260508145520 41 0.0 0.0 0.00 0.00 0.00 91 1023.9
20260508144702 41 0.0 0.0 0.00 0.00 0.00 91 1023.8
20260508143520 41 0.0 0.0 0.00 0.00 0.00 91 1023.8
20260508142520 42 0.0 0.0 0.00 0.00 0.00 90 1023.9
20260508141521 42 0.0 0.0 0.00 0.00 0.00 91 1023.8
20260508140521 42 0.0 0.0 0.00 0.00 0.00 89 1023.9
20260508135522 42 0.0 0.0 0.00 0.00 0.00 90 1023.8
20260508134521 42 0.0 0.0 0.00 0.00 0.00 90 1023.8
20260508133521 42 0.0 0.0 0.00 0.00 0.00 90 1023.7
20260508132520 42 0.0 0.0 0.00 0.00 0.00 89 1023.6
20260508131521 42 0.0 0.0 0.00 0.00 0.00 88 1023.5
20260508130520 43 0.0 0.0 0.00 0.00 0.00 89 1023.7
20260508125521 42 0.0 0.0 0.00 0.00 0.00 88 1023.8
20260508124521 43 0.0 0.0 0.00 0.00 0.00 88 1023.7
20260508123521 43 0.0 0.0 0.00 0.00 0.00 88 1023.8
20260508122522 43 0.0 0.0 0.00 0.00 0.00 87 1023.9
20260508121521 43 0.0 0.0 0.00 0.00 0.00 87 1023.9
20260508120522 43 0.0 0.0 0.00 0.00 0.00 85 1023.9
20260508115520 44 0.0 0.0 0.00 0.00 0.00 85 1023.9
20260508114521 44 0.0 0.0 0.00 0.00 0.00 85 1023.9
20260508113521 45 0.0 0.0 0.00 0.00 0.00 85 1023.8
20260508112521 45 0.0 0.0 0.00 0.00 0.00 85 1023.8
20260508111521 45 0.0 0.0 0.00 0.00 0.00 83 1023.8
20260508110520 46 0.0 0.0 0.00 0.00 0.00 83 1023.6
20260508105520 47 0.0 0.0 0.00 0.00 0.00 82 1023.5
20260508104702 47 0.0 0.0 0.00 0.00 0.00 81 1023.4
20260508103521 48 0.0 0.0 0.00 0.00 0.00 80 1023.3
20260508102520 49 0.0 0.0 0.00 0.00 0.00 79 1023.3
20260508101521 49 0.0 0.0 0.00 0.00 0.00 78 1023.1
20260508100524 50 0.0 0.0 0.00 0.00 0.00 77 1023.0
20260508095521 51 0.0 0.0 0.00 0.00 0.00 76 1022.7
20260508094521 51 0.0 0.0 0.00 0.00 0.00 75 1022.7
20260508093525 52 0.0 0.0 0.00 0.00 0.00 73 1022.3
20260508092521 53 0.0 0.0 0.00 0.00 0.00 72 1022.4
20260508091520 54 0.0 1.0 0.00 0.00 0.00 72 1022.2
20260508090522 55 0.0 0.0 0.00 0.00 0.00 69 1021.9
20260508085525 56 0.0 1.0 0.00 0.00 0.00 68 1021.5
20260508084522 57 0.0 1.0 0.00 0.00 0.00 66 1021.3
20260508083701 57 0.0 0.0 0.00 0.00 0.00 65 1021.1
20260508082520 58 0.0 0.0 0.00 0.00 0.00 64 1020.9
20260508081522 59 0.0 1.0 0.00 0.00 0.00 63 1020.9
20260508080521 60 0.0 0.0 0.00 0.00 0.00 61 1020.6
20260508075520 61 0.0 0.0 0.00 0.00 0.00 60 1020.5
20260508074520 61 0.0 1.0 0.00 0.00 0.00 59 1020.2
20260508073521 62 0.0 1.0 0.00 0.00 0.00 57 1019.9
20260508072521 63 0.0 2.0 0.00 0.00 0.00 56 1019.7
20260508071521 64 0.0 1.0 0.00 0.00 0.00 55 1019.3
20260508070520 65 0.0 1.0 0.00 0.00 0.00 54 1019.1
20260508065521 65 0.0 3.0 0.00 0.00 0.00 53 1018.9
20260508064521 67 0.0 1.0 0.00 0.00 0.00 51 1018.6
20260508063523 68 0.0 2.0 0.00 0.00 0.00 49 1018.5
20260508062520 69 0.0 2.0 0.00 0.00 0.00 48 1018.5
20260508061522 69 0.0 2.0 0.00 0.00 0.00 48 1018.2
20260508060521 70 248 1.0 4.0 0.00 0.00 0.00 46 1018.2
20260508055523 71 0.0 2.0 0.00 0.00 0.00 46 1018.2
20260508054520 71 248 1.0 3.0 0.00 0.00 0.00 44 1018.1
20260508053521 72 248 1.0 2.0 0.00 0.00 0.00 44 1018.1